Weather History for Carson City, NV

Change the Weather History Date:

Tuesday, March 26, 2013

  Actual Average Record
Temperature  
Mean Temperature 52 °F -  
Max Temperature 59 °F 57 °F 59 °F (2013)
Min Temperature 41 °F 27 °F 32 °F (2012)
Degree Days  
Heating Degree Days 14    
Growing Degree Days 2 (Base 50)    
Moisture  
Dew Point 26 °F    
Average Humidity 37    
Maximum Humidity 70    
Minimum Humidity 26    
Precipitation  
Precipitation 0.00 in - - ()
Sea Level Pressure  
Sea Level Pressure 29.94 in    
Wind  
Wind Speed 8 mph (SW)    
Max Wind Speed 17 mph    
Max Gust Speed 26 mph    
Visibility 10 miles    
Events      
Averages and records for this station are not official NWS values.
T = Trace of Precipitation, MM = Missing Value Source: NWS Daily Summary

Daily Weather History Graph

Daily Weather History Graph

Search for Another Location

Airport:

Trip Planner

Search our weather history database for the weather conditions in past years. The results will help you decide how hot, cold, wet, or windy it might be!

Date:

Astronomy

Mar. 26, 2013 Rise Set
Actual Time 6:52 AM PDT 7:17 PM PDT
Civil Twilight 6:25 AM PDT 7:44 PM PDT
Nautical Twilight 5:54 AM PDT 8:15 PM PDT
Astronomical Twilight 5:21 AM PDT 8:47 PM PDT
Moon 6:59 PM PDT (3/26) 6:11 AM PDT (3/26)
Length of Visible Light 13h 18m
Length of Day
12h 24m
Full, 100% of the Moon is Illuminated
Mar 26
Full
Mar 27
Full
Apr 2
Last Quarter
Apr 10
New
Apr 18
First Quarter

Hourly Weather History & Observations

Time (PDT) Temp. Windchill Dew Point Humidity Pressure Visibility Wind Dir Wind Speed Gust Speed Precip Events Conditions
12:15 AM 50.0 °F - 15.8 °F 26% 29.95 in 10.0 mi West 9.2 mph - N/A   Mostly Cloudy
12:35 AM 48.2 °F - 19.4 °F 32% 29.94 in 10.0 mi NW 10.4 mph - N/A   Mostly Cloudy
12:55 AM 48.2 °F - 21.2 °F 34% 29.94 in 10.0 mi Calm Calm - N/A   Scattered Clouds
1:15 AM 46.4 °F 45.2 °F 21.2 °F 37% 29.94 in 10.0 mi North 3.5 mph - N/A   Overcast
1:35 AM 46.4 °F 44.3 °F 23.0 °F 40% 29.92 in 10.0 mi SE 4.6 mph - N/A   Overcast
1:55 AM 48.2 °F - 23.0 °F 37% 29.92 in 10.0 mi West 3.5 mph - N/A   Overcast
2:15 AM 48.2 °F - 24.8 °F 40% 29.92 in 10.0 mi South 5.8 mph - N/A   Overcast
2:35 AM 50.0 °F - 24.8 °F 37% 29.92 in 10.0 mi SW 8.1 mph 20.7 mph N/A   Overcast
2:55 AM 48.2 °F - 24.8 °F 40% 29.92 in 10.0 mi SW 3.5 mph - N/A   Overcast
3:15 AM 48.2 °F - 24.8 °F 40% 29.93 in 10.0 mi South 9.2 mph 21.9 mph N/A   Overcast
3:35 AM 48.2 °F - 24.8 °F 40% 29.93 in 10.0 mi South 9.2 mph - N/A   Overcast
3:55 AM 48.2 °F - 24.8 °F 40% 29.92 in 10.0 mi SE 6.9 mph - N/A   Overcast
4:15 AM 48.2 °F - 24.8 °F 40% 29.91 in 10.0 mi SE 5.8 mph 18.4 mph N/A   Overcast
4:35 AM 48.2 °F - 24.8 °F 40% 29.92 in 10.0 mi SSE 4.6 mph - N/A   Overcast
4:55 AM 48.2 °F - 24.8 °F 40% 29.92 in 10.0 mi SSE 8.1 mph - N/A   Overcast
5:15 AM 48.2 °F - 23.0 °F 37% 29.91 in 10.0 mi SE 10.4 mph - N/A   Overcast
5:35 AM 50.0 °F - 21.2 °F 32% 29.91 in 10.0 mi South 9.2 mph 16.1 mph N/A   Overcast
5:55 AM 50.0 °F - 19.4 °F 30% 29.91 in 10.0 mi SSW 10.4 mph 17.3 mph N/A   Overcast
6:15 AM 50.0 °F - 19.4 °F 30% 29.91 in 10.0 mi SW 8.1 mph 18.4 mph N/A   Overcast
6:35 AM 48.2 °F - 19.4 °F 32% 29.93 in 10.0 mi SW 6.9 mph - N/A   Overcast
6:55 AM 48.2 °F - 19.4 °F 32% 29.93 in 10.0 mi WSW 8.1 mph - N/A   Overcast
7:15 AM 48.2 °F - 21.2 °F 34% 29.93 in 10.0 mi WSW 9.2 mph 17.3 mph N/A   Scattered Clouds
7:35 AM 50.0 °F - 23.0 °F 35% 29.93 in 10.0 mi SW 9.2 mph - N/A   Clear
7:55 AM 50.0 °F - 21.2 °F 32% 29.93 in 10.0 mi SSW 8.1 mph - N/A   Clear
8:15 AM 50.0 °F - 23.0 °F 35% 29.94 in 10.0 mi SSW 8.1 mph - N/A   Clear
8:35 AM 51.8 °F - 23.0 °F 33% 29.94 in 10.0 mi SSW 5.8 mph - N/A   Clear
8:55 AM 51.8 °F - 21.2 °F 30% 29.94 in 10.0 mi South 10.4 mph - N/A   Partly Cloudy
9:15 AM 53.6 °F - 21.2 °F 28% 29.94 in 10.0 mi WSW 5.8 mph - N/A   Mostly Cloudy
9:35 AM 53.6 °F - 23.0 °F 30% 29.95 in 10.0 mi SW 9.2 mph 17.3 mph N/A   Mostly Cloudy
9:55 AM 55.4 °F - 23.0 °F 29% 29.94 in 10.0 mi SW 11.5 mph - N/A   Partly Cloudy
10:15 AM 55.4 °F - 24.8 °F 31% 29.95 in 10.0 mi SW 13.8 mph - N/A   Mostly Cloudy
10:35 AM 57.2 °F - 24.8 °F 29% 29.95 in 10.0 mi WSW 8.1 mph 20.7 mph N/A   Overcast
10:55 AM 55.4 °F - 26.6 °F 33% 29.95 in 10.0 mi WSW 6.9 mph 16.1 mph N/A   Overcast
11:15 AM 55.4 °F - 26.6 °F 33% 29.95 in 10.0 mi SW 9.2 mph - N/A   Overcast
11:35 AM 57.2 °F - 26.6 °F 31% 29.95 in 10.0 mi West 9.2 mph - N/A   Overcast
11:55 AM 55.4 °F - 26.6 °F 33% 29.95 in 10.0 mi WSW 9.2 mph - N/A   Overcast
12:15 PM 55.4 °F - 28.4 °F 36% 29.95 in 10.0 mi SW 6.9 mph 16.1 mph N/A   Overcast
12:35 PM 55.4 °F - 28.4 °F 36% 29.95 in 10.0 mi SSW 5.8 mph - N/A   Overcast
12:55 PM 55.4 °F - 28.4 °F 36% 29.94 in 10.0 mi South 5.8 mph - N/A   Overcast
1:15 PM 55.4 °F - 28.4 °F 36% 29.94 in 10.0 mi SSW 5.8 mph 21.9 mph N/A   Overcast
1:35 PM 57.2 °F - 28.4 °F 33% 29.94 in 10.0 mi SW 8.1 mph 23.0 mph N/A   Overcast
1:55 PM 57.2 °F - 26.6 °F 31% 29.94 in 10.0 mi West 15.0 mph 20.7 mph N/A   Overcast
2:15 PM 57.2 °F - 26.6 °F 31% 29.93 in 10.0 mi SSW 11.5 mph 19.6 mph N/A   Mostly Cloudy
2:35 PM 55.4 °F - 28.4 °F 36% 29.94 in 10.0 mi SW 12.7 mph 19.6 mph N/A   Scattered Clouds
2:55 PM 55.4 °F - 28.4 °F 36% 29.93 in 10.0 mi NNW 3.5 mph - N/A   Mostly Cloudy
3:15 PM 57.2 °F - 28.4 °F 33% 29.93 in 10.0 mi SW 15.0 mph 20.7 mph N/A   Mostly Cloudy
3:35 PM 59.0 °F - 26.6 °F 29% 29.92 in 10.0 mi West 12.7 mph 20.7 mph N/A   Partly Cloudy
3:55 PM 57.2 °F - 26.6 °F 31% 29.92 in 10.0 mi SW 13.8 mph 19.6 mph N/A   Clear
4:15 PM 59.0 °F - 24.8 °F 27% 29.92 in 10.0 mi West 15.0 mph 26.5 mph N/A   Clear
4:35 PM 59.0 °F - 26.6 °F 29% 29.92 in 10.0 mi WSW 11.5 mph 23.0 mph N/A   Clear
4:55 PM 59.0 °F - 24.8 °F 27% 29.92 in 10.0 mi West 17.3 mph 24.2 mph N/A   Clear
5:15 PM 57.2 °F - 24.8 °F 29% 29.92 in 10.0 mi WSW 12.7 mph 19.6 mph N/A   Clear
5:35 PM 57.2 °F - 24.8 °F 29% 29.92 in 10.0 mi West 13.8 mph 21.9 mph N/A   Clear
5:55 PM 57.2 °F - 24.8 °F 29% 29.92 in 10.0 mi WSW 10.4 mph 20.7 mph N/A   Clear
6:15 PM 55.4 °F - 26.6 °F 33% 29.92 in 10.0 mi West 10.4 mph 18.4 mph N/A   Partly Cloudy
6:35 PM 53.6 °F - 26.6 °F 35% 29.93 in 10.0 mi WSW 8.1 mph 16.1 mph N/A   Partly Cloudy
6:55 PM 53.6 °F - 26.6 °F 35% 29.93 in 10.0 mi WSW 4.6 mph - N/A   Partly Cloudy
7:15 PM 51.8 °F - 26.6 °F 38% 29.93 in 10.0 mi WNW 3.5 mph - N/A   Clear
7:35 PM 51.8 °F - 26.6 °F 38% 29.94 in 10.0 mi Calm Calm - N/A   Clear
7:55 PM 51.8 °F - 26.6 °F 38% 29.94 in 10.0 mi SW 8.1 mph 17.3 mph N/A   Clear
8:15 PM 50.0 °F - 30.2 °F 47% 29.95 in 10.0 mi SW 6.9 mph - N/A   Clear
8:35 PM 50.0 °F - 30.2 °F 47% 29.96 in 10.0 mi WSW 9.2 mph 16.1 mph N/A   Partly Cloudy
8:55 PM 50.0 °F - 32.0 °F 50% 29.96 in 10.0 mi West 10.4 mph 20.7 mph N/A   Scattered Clouds
9:15 PM 50.0 °F - 32.0 °F 50% 29.97 in 10.0 mi West 5.8 mph - N/A   Mostly Cloudy
9:35 PM 48.2 °F - 32.0 °F 54% 29.97 in 10.0 mi WNW 11.5 mph - N/A   Overcast
9:55 PM 48.2 °F - 32.0 °F 54% 29.97 in 10.0 mi WNW 9.2 mph - N/A   Mostly Cloudy
10:15 PM 48.2 °F - 32.0 °F 54% 29.97 in 10.0 mi West 5.8 mph - N/A   Clear
10:35 PM 46.4 °F 43.5 °F 32.0 °F 57% 29.97 in 10.0 mi East 5.8 mph - N/A   Clear
10:55 PM 46.4 °F 45.2 °F 32.0 °F 57% 29.98 in 10.0 mi SE 3.5 mph - N/A   Scattered Clouds
11:15 PM 46.4 °F 45.2 °F 32.0 °F 57% 29.97 in 10.0 mi SW 3.5 mph - N/A   Mostly Cloudy
11:35 PM 44.6 °F 41.4 °F 32.0 °F 61% 29.97 in 10.0 mi NNW 5.8 mph - N/A   Clear
11:55 PM 41.0 °F 37.1 °F 32.0 °F 70% 29.97 in 10.0 mi East 5.8 mph - N/A   Clear